www.pogodaiklimat.ru

Погода и климат >> Архив погоды >> Мозамбик >> Quelimane


ПОГОДА в Quelimane

  • Прогноз погоды в Quelimane
  • Монитор погоды в Quelimane
  • Климат города

АРХИВ ПОГОДЫ в Quelimane

Время (UTC), дата Ветер
(напр.,м/с)
 
Видим.   Явления Облачность Т
(С)
Тd
(С)
f
(%)
Тe
(С)
Тes
(С)
Комфортность P
(гПа)
Po
(гПа)
Тmin
(С)
Tmax
(С)
R
(мм)
S
(см)
15 17.02 ЮВ 6 30 км 8/4 600 м
[Cb cap Ci ing]
+31.8 +24.7 66 +45 +45 опасность
перегрева
1011.5 1012.0
18 17.02 СЗ 5 30 км 8/6 600 м
[Cb cap Ci ing]
+26.8 +23.0 80 +36 +36 очень
душно
1015.9 1016.0 +33.5
21 17.02 Ю 3 30 км зарница 4/3 600 м
[Cb cap Ci sp]
+25.8 +22.9 84 +34 +34 очень
душно
1015.8 1016.0
00 18.02 СЗ 1 30 км 1/1 600 м
[Cu med, cong]
+24.4 +22.6 90 +32 +32 очень
душно
1014.9 1015.0
03 18.02 СЗ 2 30 км 4/3 600 м
[Cu med, cong Ci fib]
+23.6 +22.4 93 +31 +31 очень
душно
1014.9 1015.0
06 18.02 З 3 30 км {гроза} 8/8 300 м
[Sc diur, vesp Ac trans]
+26.4 +24.1 87 +37 +38 очень
душно
1015.8 1016.0 +23.4
09 18.02 ЮЗ 3 30 км 8/8 600 м
[Cu med, cong Ac trans]
+31.6 +26.6 75 +49 +52 опасность
перегрева
1014.7 1015.0
12 18.02 Ю 4 30 км 5/5 600 м
[Cu med, cong Ac trans]
+32.2 +25.5 68 +47 +52 опасность
перегрева
1012.6 1013.0
15 18.02 ЮВ 5 30 км 4/4 600 м
[Cu med, cong Ac trans]
+30.8 +24.6 70 +44 +44 опасность
перегрева
1011.4 1011.0
18 18.02 ЮВ 4 30 км 4/4 600 м
[Cu med, cong Ac trans]
+28.6 +24.9 80 +41 +41 опасность
перегрева
1013.1 1013.0 +32.5
21 18.02 Ю 2 30 км 4/4 600 м
[Cu med, cong]
+27.6 +24.5 83 +39 +39 очень
душно
1014.5 1015.0
00 19.02 З 1 30 км 3/3 600 м
[Cu med, cong]
+26.0 +24.6 92 +37 +37 очень
душно
1013.0 1013.0
03 19.02 З 3 30 км 8/6 600 м
[Cu med, cong Ac trans]
+26.0 +24.3 90 +36 +36 очень
душно
1013.0 1013.0
06 19.02 ЮЗ 3 30 км 3/3 600 м
[Cu med, cong Ci sp]
+28.6 +24.6 79 +41 +45 опасность
перегрева
1013.6 1014.0 +25.0
09 19.02 ЮЗ 4 30 км 5/5 600 м
[Cu med, cong]
+31.8 +21.8 55 +40 +47 очень
душно
1013.4 1013.0
12 19.02 ЮВ 4 30 км 5/5 600 м
[Cu med, cong]
+32.6 +22.1 54 +41 +46 опасность
перегрева
1011.2 1011.0
00 20.02 З 2 30 км 1/1 600 м
[Cu med, cong]
+26.6 +24.0 86 +37 +37 очень
душно
1011.5 1012.0
03 20.02 З 2 30 км 1/1 600 м
[Cu med, cong]
+25.0 +24.1 95 +34 +34 очень
душно
1011.1 1011.0
06 20.02 З 4 30 км 6/6 600 м
[Cu med, cong]
+27.0 +24.4 86 +38 +40 очень
душно
1012.5 1013.0 +25.0
09 20.02 ЮЗ 8 30 км 8/8 600 м
[Cu med, cong Ac trans]
+31.2 +23.1 62 +41 +42 опасность
перегрева
1011.2 1011.0
12 20.02 Ю 3 30 км {ливн. осадки} 8/6 600 м
[Cu med, cong Ac trans]
+30.4 +23.0 65 +41 +44 опасность
перегрева
1009.5 1010.0 5
15 20.02 Ю 5 30 км 4/4 600 м
[Cu med, cong Ac trans Ci fib]
+30.0 +23.0 66 +40 +40 очень
душно
1008.5 1009.0
18 20.02 ЮВ 4 30 км 4/1 600 м
[Cu med, cong Ac trans Ci fib]
+28.2 +23.6 76 +38 +38 очень
душно
1010.7 1011.0 +32.0 5
21 20.02 штиль 0 30 км 3/3 600 м
[Cu med, cong]
+27.4 +23.9 81 +38 +38 очень
душно
1011.8 1012.0
00 21.02 штиль 0 30 км 4/4 600 м
[Cu med, cong Ac trans]
+26.4 +23.5 84 +36 +36 очень
душно
1011.6 1012.0
03 21.02 штиль 0 30 км 4/4 600 м
[Cu med, cong Ac trans]
+25.0 +23.8 93 +34 +34 очень
душно
1011.2 1011.0
06 21.02 СВ 2 30 км 5/5 600 м
[Cu med, cong Ac trans]
+26.0 +24.6 92 +37 +41 очень
душно
1011.6 1012.0 +25.0 5
09 21.02 СЗ 2 30 км 8/8 600 м
[Cu med, cong]
+31.0 +23.5 64 +42 +46 опасность
перегрева
1010.1 1010.0
12 21.02 ЮВ 4 30 км 5/5 600 м
[Cu med, cong Ac trans]
+31.0 +23.5 64 +42 +46 опасность
перегрева
1008.9 1009.0
15 21.02 ЮВ 4 30 км 4/4 600 м
[Cu med, cong Ac trans]
+30.2 +22.6 64 +40 +40 очень
душно
1008.3 1008.0
18 21.02 В 4 30 км 3/3 600 м
[Cu med, cong]
+27.4 +23.0 77 +37 +37 очень
душно
1010.2 1010.0 +32.5
06 22.02 штиль 0 30 км 1/1 600 м
[Cu med, cong Ci fib]
+28.2 +25.1 83 +41 +51 опасность
перегрева
1011.2 1011.0 +24.8
09 22.02 ЮВ 3 30 км 5/5 600 м
[Cu med, cong]
+31.6 +23.6 63 +43 +52 опасность
перегрева
1010.5 1011.0
12 22.02 ЮВ 4 30 км в посл. час морось {ливн. осадки} 6/6 600 м
[Cu med, cong Ac trans]
+30.8 +25.5 73 +45 +49 опасность
перегрева
1008.8 1009.0 6
18 22.02 В 4 30 км 3/3 600 м
[Cu med, cong]
+27.4 +24.2 83 +38 +38 очень
душно
1009.3 1009.0 +33.3
21 22.02 В 3 30 км 1/1 600 м
[Cu hum Ac trans]
+26.8 +24.2 86 +37 +37 очень
душно
1011.1 1011.0
00 23.02 СЗ 2 30 км ясно +26.6 +25.3 93 +39 +39 очень
душно
1010.2 1010.0
03 23.02 штиль 0 30 км 1/1 600 м
[Cu hum Ac trans]
+26.8 +24.2 86 +37 +37 очень
душно
1011.1 1011.0
06 23.02 СВ 2 30 км 1/1 600 м
[Cu med, cong]
+27.4 +25.1 87 +39 +47 очень
душно
1012.2 1012.0 +24.4 6
09 23.02 С 2 30 км 5/5 600 м
[]
+31.6 +23.6 63 +43 +54 опасность
перегрева
1011.2 1011.0
12 23.02 ЮВ 3 30 км 5/5 600 м
[Cu med, cong Ac trans Ci sp]
+33.2 +23.5 57 +44 +51 опасность
перегрева
1005.8 1006.0
15 23.02 ЮВ 6 30 км 5/4 600 м
[Cu med, cong Ac trans]
+30.4 +24.4 70 +42 +43 опасность
перегрева
1008.3 1008.0
18 23.02 В 3 30 км 4/3 600 м
[Cu med, cong Ac trans Ci sp]
+28.4 +25.3 83 +41 +41 опасность
перегрева
1010.5 1011.0 +34.0
00 24.02 Ю 2 30 км 4/4 600 м
[Cu med, cong]
+27.0 +25.3 90 +39 +39 очень
душно
1011.0 1011.0
03 24.02 штиль 0 30 км 1/1 600 м
[Cu med, cong]
+26.0 +24.9 94 +37 +37 очень
душно
1010.9 1011.0

 

Местоположение метеостанции Quelimane (Мозамбик): широта -17.88 долгота 36.88 высота над уровнем моря 16 м.

В архиве по умолчанию представлена погода в Quelimane за последнюю неделю. Архивные данные за месяц целиком и за предыдущие месяцы, начиная с января 2011 года, Вы можете получить, выбрав интересующий диапазон дат из раскрывающегося списка и нажав кнопку "Ввод!".

Внимание! Время в таблицах - всемирное. Для получения местного времени необходимо прибавить поправку, которая в Quelimane равна 2 ч.

Смотрите также архив погоды в соседних городах и на ближайших метеорологических станциях:

Погода в Pebane (Мозамбик) (151 км)
Погода в Caia (Мозамбик) (164 км)
Погода в Beira (Мозамбик) (298 км)
Погода в Chichiri (Малави) (306 км)
Погода в Chileka (Малави) (318 км)
Погода в Cuamba (Мозамбик) (341 км)
Погода в Angoche (Мозамбик) (370 км)
Погода в Chimoio (Мозамбик) (385 км)
Погода в Catandica (Мозамбик) (393 км)
Погода в Tete Chingodze (Мозамбик) (396 км)

Пояснения к столбцам:

Ветер - указаны скорость ветра в м/с - средняя за 10 мин, порывы в срок и между сроками (в фигурных скобках) и направление, откуда дует ветер: С - северный, СВ - северо-восточный, В - восточный, ЮВ - юго-восточный, Ю - южный, ЮЗ - юго-западный, З - западный, СЗ - северо-западный.
Видимость - горизонтальная дальность видимости в метрах или километрах. При видимости от 1 до 10 км при отсутствии осадков обычно наблюдается дымка, при ухудшении видимости до 1 км и менее - туман. В сухую погоду видимость может ухудшаться дымом, пылью или мглою.
Явления - указаны атмосферные явления, наблюдавшиеся в срок или в последний час перед сроком; фигурными скобками обозначены явления, наблюдавшиеся между сроками (за 1-3 часа до срока); квадратными скобками обозначены град или гололедные отложения с указанием их диаметра в мм.
Облачность - указаны через наклонную черту общая и нижняя облачность в баллах и высота нижней границы облаков в метрах; квадратными скобками обозначены формы облаков: Ci - перистые, Cs - перисто-слоистые, Cc - перисто-кучевые, Ac - высококучевые, As - высокослоистые, Sc - слоисто-кучевые, Ns - слоисто-дождевые, Cu - кучевые, Cb - кучево-дождевые. Подробнее классификацию облаков см. в Атласе облаков (PDF).
T - Температура воздуха - температура, измеренная на высоте 2 м над землей.
Td - Температура точки росы - температура, при понижении до которой содержащийся в воздухе водяной пар достигнет насыщения.
f - Относительная влажность воздуха - влажноcть воздуха, измеренная на высоте 2 м над землей.
Te - Эффективная температура - температура, которую ощущает одетый по сезону человек в тени. Характеристика душности погоды. При расчете учитывается влияние влажности воздуха и скорости ветра на теплоощущения человека.
Tes - Эффективная температура на солнце - температура, которую ощущает человек, с поправкой на солнечный нагрев. Характеристика знойности погоды. Зависит от высоты солнца над горизонтом, облачности и скорости ветра. Ночью, в пасмурную погоду, а также при ветре 12 м/с и более поправка равна нулю.
P - Атмосферное давление - приведенное к уровню моря атмосферное давление.
Po - Атмосферное давление - измеренное на уровне метеостанции атмосферное давление.
Tmin - Минимальная температура - минимум температуры воздуха на высоте 2 м над землей.
Tmax - Максимальная температура - максимум температуры воздуха на высоте 2 м над землей.
R - Количество осадков - Количество выпавших осадков, мм. При наведении курсора мыши на число - период времени, за который выпало указанное количество осадков.
S - Снежный покров - Высота снежного покрова, см. При наведении курсора мыши на число - состояние снежного покрова и степень покрытия местности в баллах.